User: anonymous   Login
Location: Broad Creek
(39.7000°N, 76.2570°W)
Time: 09:09:02
(UTC-04:00)
Language:

ETS-7 - Orbit

View from above orbital plane
View from above orbital plane
View from above satellite
View from above satellite

Ground track
Ground track

The orbit data is extracted from the following two-line orbital elements,

1 25064U 97074B   15214.86674221  .00071217  00000-0  36023-3 0  9998
2 25064 034.9487 044.2861 0003532 024.7324 102.8427 15.80329540985546
Epoch (UTC): 02 August 2015 20:48:06
Eccentricity: 0.0003532
inclination: 34.9487°
perigee height: 327 km
apogee height: 332 km
right ascension of ascending node: 44.2861°
argument of perigee: 24.7324°
revolutions per day: 15.80329540
mean anomaly at epoch: 102.8427°
orbit number at epoch: 98554

The dashed part of the orbit path shows where the satellite is in the earth's shadow,  

DLR